Flag for Brazil Weather past 2 weeks in Santarém, Pará, Brazil

Now
84 °F

Passing clouds.


Feels Like: 92 °F
Forecast: N/A
Wind: 5 mph from East

Location: Santarem-Aeroporto

Current Time: May 22, 2015 at 6:29:15 PM

Latest Report: May 22, 2015 at 6:00 PM


Visibility: N/A

Pressure: 29.83 "Hg

Humidity: 74%

Dew point: 75 °F

Location of SantarémLocation

Historic Weather in Santarém — Graph

°F

Santarém temperature yesterday

Maximum temperature yesterday: 86 °F (at 11:00 AM)
Minimum temperature yesterday: 75 °F (at 5:00 AM)
Average temperature yesterday: 80 °F

Past Weeks' High & Low Weather Summary

 TemperatureHumidityPressure
High88 °F (May 8, 6:00 PM)100% (May 7, 7:00 PM)29.98 "Hg (May 7, 7:00 PM)
Low37 °F (May 19, 8:00 AM)24% (May 18, 9:00 AM)29.77 "Hg (May 10, 5:00 PM)
Average79 °F89%29.88 "Hg
* Reported May 7 5:00 PM — May 22 5:00 PM, Santarém, Weather by CustomWeather, © 2015

Note: Actual official high and low records may vary slightly from our data, if they occured in-between our weather recording intervals... More about our weather records

Advertising

Santarém weather history for previous 24 hours

 ConditionsComfort  
Time TempWeatherWind HumidityBarometerVisibility
5:00 PM
Fri, May 22
86 °FPassing clouds.7 mph75%29.83 "HgN/A
4:00 PM86 °FPassing clouds.7 mph75%29.83 "HgN/A
3:00 PM86 °FPassing clouds.7 mph75%29.86 "HgN/A
2:00 PM86 °FPassing clouds.17 mph75%29.92 "HgN/A
1:00 PM82 °FBroken clouds.10 mph84%29.95 "HgN/A
12:00 PM84 °FBroken clouds.12 mph79%29.98 "HgN/A
11:00 AM81 °FBroken clouds.7 mph89%29.98 "HgN/A
10:00 AM81 °FBroken clouds.6 mph89%29.98 "HgN/A
9:00 AM77 °FBroken clouds.12 mph94%29.98 "HgN/A
8:00 AM77 °FCloudy.12 mph94%29.98 "HgN/A
7:00 AM75 °FLight rain. Mostly cloudy.7 mph94%29.95 "Hg4 mi
6:00 AMN/AThunderstorms.15 mphN/AN/A3 mi
5:00 AM75 °FThunderstorms. Passing clouds.9 mph100%N/A1 mi
4:00 AM75 °FThundershowers. Passing clouds.No wind94%29.89 "HgN/A
3:00 AM75 °FThundershowers. Passing clouds.No wind94%29.92 "HgN/A
2:00 AM75 °FThundershowers. Passing clouds.No wind94%29.92 "HgN/A
1:00 AM73 °FThundershowers. Passing clouds.2 mph100%29.92 "HgN/A
12:00 AM73 °FThundershowers. Passing clouds.2 mph100%29.92 "HgN/A
11:00 PM
Thu, May 21
75 °FThundershowers. Passing clouds.No wind94%29.92 "HgN/A
10:00 PM75 °FThundershowers. Passing clouds.No wind100%29.92 "HgN/A
9:00 PM75 °FClear.No wind100%29.89 "Hg10 mi
8:00 PM77 °FClear.2 mph94%29.86 "Hg10 mi
7:00 PM79 °FPassing clouds.3 mph89%29.83 "HgN/A
6:00 PM82 °FPassing clouds.5 mph84%29.83 "HgN/A
Weather by CustomWeather, © 2015

See weather overviewHow to use our weather pages